Terug naar catalogus

STARLINK-35124

ActiefCommunicatieVLEO
NORAD 65511·PAYLOAD·🇺🇸 United States

Gelanceerd Sep 5, 2025 vanaf Cape Canaveral Space Force Station

Loading…

Volgende Passages (komende 24 uur)

TLE

VersSource: CelesTrak SupGP

Epoch: Sep 14, 2026, 22:32 UTC

1 65511C 25198V   26257.93937500  .00009477  00000+0  28000-3 0  2577
2 65511  53.1579 107.4349 0001532  77.6674 106.5947 15.34384434    18

Volg STARLINK-35124 in realtime met AllMySat

Download on the App Store